#timestamp,LO_Frequency,Hit,StdDev 
1627992015.9,286047000.7,N
1627992035.7,286047001.0,N
1627992055.5,286047001.0,N
1627992075.4,286047001.2,N
1627992095.2,286046999.3,N
1627992115.1,286046998.3,N
1627992116.0,286046998.3,N
1627992135.8,286046998.1,N
1627992155.6,286046998.6,N
1627992175.5,286047000.0,N
1627992195.3,286047002.1,N
1627992215.1,286047002.7,N
1627992235.9,286047002.2,N
1627992255.7,286047002.0,N
1627992275.6,286047001.9,N
1627992295.4,286047002.6,N
1627992315.2,286047002.3,N
1627992335.1,286047000.4,N
1627992336.0,286047000.4,N
1627992355.8,286046999.9,N
1627992375.6,286047000.5,N
1627992395.5,286047002.3,N
1627992415.3,286047002.3,N
1627992435.2,286046999.7,N
1627992455.9,286047002.4,N
1627992475.7,286047002.6,N
1627992495.6,286047001.9,N
1627992515.4,286047001.9,N
1627992535.2,286047002.3,N
1627992555.1,286047002.5,N
1627992556.0,286047002.5,N
1627992575.8,286047002.6,N
1627992595.7,286047002.1,N
1627992615.5,286047001.9,N
1627992635.3,286047004.0,N
1627992655.2,286047003.7,N
1627992675.0,286047005.9,Y
1627992675.9,286047005.9,P
1627992695.8,286047001.9,N
1627992715.6,286047001.7,N
1627992735.4,286047000.1,N
1627992755.3,286047000.1,N
1627992775.1,286047000.6,N
1627992795.8,286046998.5,N
1627992815.7,286046999.0,N
1627992835.5,286046999.3,N
1627992855.4,286046998.0,N
1627992875.2,286046997.6,N
1627992895.0,286046995.5,N
1627992895.9,286046995.5,N
1627992915.8,286046995.5,N
1627992935.6,286046995.7,N
1627992955.5,286046995.3,N
1627992975.3,286046997.6,N
1627992995.1,286046997.4,N
1627993015.9,286046996.7,N
1627993035.7,286046998.7,N
1627993055.5,286046999.2,N
1627993075.4,286046997.8,N
1627993095.2,286046999.4,N
1627993115.1,286046998.5,N
1627993116.0,286046998.5,N
1627993135.8,286047000.6,N
1627993155.6,286047000.6,N
1627993175.5,286046998.5,N
1627993195.3,286046998.5,N
1627993215.1,286047000.4,N
1627993235.9,286047002.3,N
1627993255.7,286047000.3,N
1627993275.6,286047000.4,N
1627993295.4,286046999.7,N
1627993315.2,286046999.9,N
1627993335.1,286047002.4,N
1627993336.0,286047002.4,N
1627993355.8,286047002.7,N
1627993375.7,286047002.8,N
1627993395.5,286046999.7,N
1627993415.3,286047002.4,N
1627993435.2,286047000.6,N
1627993455.0,286047000.6,N
1627993455.9,286047000.6,N
1627993475.7,286047002.5,N
1627993495.6,286047001.7,N
1627993515.4,286047002.8,N
1627993535.3,286047000.3,N
1627993555.1,286046999.9,N
1627993556.0,286046999.9,N
1627993575.8,286047002.6,N
1627993595.7,286047001.8,N
1627993615.5,286047002.4,N
1627993635.3,286047002.6,N
1627993655.2,286047002.6,N
1627993675.0,286047002.4,N
1627993675.9,286047002.4,N
1627993725.8,286047000.7,E
1627993735.7,286046998.9,N
1627993755.5,286046998.3,P
1627993775.4,286046998.8,P
1627993795.2,286046998.6,Y
1627993815.0,286047000.9,P
1627993815.9,286047000.9,N
1627993835.8,286047000.7,N
1627993855.6,286047002.1,N
1627993875.5,286047001.8,N
1627993895.3,286047004.3,Y
1627993915.1,286047001.9,P
1627993935.9,286047001.6,N
1627993955.7,286047004.3,P
1627993975.5,286047001.7,N
1627993995.4,286047003.7,Y
1627994015.2,286046999.8,P
1627994035.1,286047002.5,N
1627994036.0,286047002.5,N
1627994055.8,286047004.1,Y
1627994075.6,286047002.1,P
1627994095.5,286047001.5,P
1627994115.3,286047001.4,P
1627994135.2,286047001.9,Y
1627994155.9,286046998.1,P
1627994175.7,286046998.2,N
1627994195.6,286047000.9,N
1627994215.4,286047001.0,N
1627994235.2,286047000.0,N
1627994255.1,286047000.4,N
1627994256.0,286047000.4,N
1627994275.8,286046998.5,N
1627994295.7,286047000.5,N
1627994315.5,286047000.5,N
1627994335.3,286047001.0,N
1627994355.2,286047001.0,N
1627994375.9,286047000.9,N
1627994395.7,286047001.1,N
1627994415.6,286047000.3,N
1627994435.4,286047000.0,N
1627994455.2,286047000.9,N
1627994475.1,286046998.1,N
1627994476.0,286046998.1,N
1627994495.8,286047000.4,N
1627994515.7,286047001.0,N
1627994535.5,286047000.7,N
1627994555.3,286047000.8,N
1627994575.2,286046998.2,N
1627994595.0,286046999.0,N
1627994595.9,286046999.0,N
1627994615.8,286046998.5,N
1627994635.6,286046998.6,N
1627994655.4,286046998.8,N
1627994675.3,286046997.7,N
1627994695.1,286046996.3,Y
1627994715.8,286046994.0,P
1627994735.7,286046994.0,N
1627994755.5,286046991.8,P
1627994775.4,286046992.0,N
1627994795.2,286046992.3,N
1627994815.0,286046990.3,Y
1627994815.9,286046990.3,P
1627994835.8,286046997.2,N
1627994855.6,286046997.2,N
1627994875.4,286046997.1,N
1627994895.3,286046999.2,N
1627994915.1,286046998.2,N
1627994935.9,286046998.8,N
1627994955.7,286046999.1,N
1627994975.5,286046999.5,N
1627994995.4,286046996.7,N
1627995015.2,286046997.2,N
1627995035.0,286046997.1,N
1627995035.9,286046997.1,N
1627995055.8,286046998.0,N
1627995075.6,286046997.9,N
1627995095.5,286046997.8,N
1627995115.3,286046995.5,N
1627995135.1,286046995.0,N
1627995155.9,286046997.7,N
1627995175.7,286046997.9,N
1627995195.5,286046995.2,N
1627995215.4,286046997.6,N
1627995235.2,286046997.9,N
1627995255.1,286046995.8,N
1627995256.0,286046995.8,N
1627995275.8,286046995.1,N
1627995295.6,286046995.4,N
1627995315.5,286046997.5,N
1627995335.3,286046997.4,N
1627995355.1,286046996.8,N
1627995375.9,286046996.8,N
1627995395.7,286046997.3,N
1627995415.6,286046997.3,N
1627995435.4,286047011.9,Y
1627995455.2,286046998.4,P
1627995475.1,286047000.7,N
1627995476.0,286047000.7,N
1627995495.8,286046998.2,N
1627995515.7,286047001.2,N
1627995535.5,286046998.3,N
1627995555.3,286046998.4,N
1627995575.2,286046998.2,N
1627995595.0,286046998.5,N
1627995595.9,286046998.5,N
